Regional Weather Roundup
Issued by NWS

Home | Current Version | Previous Version | Graphics & Text | Print | Product List | Glossary On
Versions: 1 2 3 4 5 6 7 8 9 10 11 12 13 14 15 16 17 18 19 20 21 22 23 24 25 26 27 28 29 30 31 32 33 34 35 36 37 38 39 40 41 42 43 44 45 46 47 48 49 50
000
ASUS45 KCYS 231310
RWRWY

WYOMING REGIONAL WEATHER ROUNDUP
NATIONAL WEATHER SERVICE CHEYENNE WY
700 AM MDT SAT MAY 23 2015

NOTE:  "FAIR" INDICATES FEW OR NO CLOUDS BELOW 12,000 FEET
WITH NO SIGNIFICANT WEATHER AND/OR OBSTRUCTIONS TO VISIBILITY.

WYZ001-231400-
YELLOWSTONE NATIONAL PARK

CITY           SKY/WX    TMP DP  RH WIND       PRES   REMARKS
LK YELLOWSTONE   N/A     41  35  79 VRB5      30.03R
W YELLOWSTONE  NOT AVBL

$$
WYZ002>013-054>058-071-098>099-231400-
NORTHERN WYOMING

CITY           SKY/WX    TMP DP  RH WIND       PRES   REMARKS
JACKSON        CLOUDY    45  45 100 CALM      29.96S
CODY           CLOUDY    48  46  93 NE5       29.97S
GREYBULL       CLOUDY    53  51  93 W5        29.93S
WORLAND        CLOUDY    50  49  96 W5        29.93S
SHERIDAN       CLOUDY    47  44  90 W7        29.97S
BUFFALO        CLOUDY    46  44  93 E5        29.98R
GILLETTE       CLOUDY    47  44  90 SE12      29.98S
HULETT         CLOUDY    43  41  93 CALM      30.03S
NEWCASTLE      CLOUDY    45  43  93 SE12      30.03R

$$
WYZ014>020-022>026-101>103-231400-
CENTRAL WYOMING

CITY           SKY/WX    TMP DP  RH WIND       PRES   REMARKS
BIG PINEY      LGT RAIN  41  39  93 NE6       29.98R
PINEDALE       CLOUDY    41  41 100 E6        29.99R
DUBOIS         DRIZZLE   39  37  93 NW6       29.97S WCI  35
LANDER         CLOUDY    46  43  89 CALM      29.94R
RIVERTON         N/A    N/A N/A N/A MISG      29.94S
CASPER         FOG       40  39  97 CALM      29.98R VSB 1/8
DOUGLAS        CLOUDY    44  43  96 SE13      30.00R FOG

$$
WYZ021-027>030-104>119-231400-
SOUTHERN WYOMING

CITY           SKY/WX    TMP DP  RH WIND       PRES   REMARKS
EVANSTON       CLOUDY    39  37  92 S3        29.97R
KEMMERER       PTSUNNY   39  37  93 CALM      29.98R
FORT BRIDGER   SUNNY     41  41 100 CALM      30.00S
ROCK SPRINGS   FAIR      40  37  89 SE5       29.97S
DIXON          FAIR      39  36  89 NE8       30.02F WCI  34
RAWLINS        FAIR      39  36  89 CALM      30.02R
SARATOGA       FAIR      41  37  87 MISG      30.03R
LARAMIE        FAIR      41  39  93 SE13      30.02S
CHEYENNE       CLOUDY    45  43  93 W6        30.02S
TORRINGTON     FOG       46  46 100 E6        30.01R VSB 3/4
PINE BLUFFS    CLOUDY    45  45 100 CALM      30.04R FOG

$$


USA.gov is the U.S. government's official web portal to all federal, state and local government web resources and services.